Location: Arbon
(43.0005°N, 0.7472°E)
Time: 10:16:05
(UTC+00:00)

SR - Pass Details

Date: 03 December 2020
Orbit: 575 x 880 km, 66.7° (Epoch: 21 January)

Event Time Altitude Azimuth Distance (km) Brightness Sun altitude
Rises 16:12:58 0° 178° (S) 2,787 ? 0.7°
Reaches altitude 10° 16:15:26 10° 164° (SSE) 1,913 ? 0.3°
Maximum altitude 16:18:56 25° 109° (ESE) 1,245 ? -0.2°
Drops below altitude 10° 16:22:37 10° 55° (NE) 2,027 ? -0.8°
Enters shadow 16:25:14 - 42° (NE) 2,972 ? -1.2°
Sets 16:25:18 0° 42° (NE) 2,992 - -1.2°
